| time (UTC) | temp F | wind direction | speed MPH | gust MPH | rain 1hr in | rain 24hr in | rain mn in | humidity % | barometer mb |
| 20260506150618 | 81 | 139 | 0.0 | 3.0 | 0.00 | 0.00 | 0.00 | 86 | 1008.4 |
| 20260506150114 | 80 | 182 | 1.0 | 4.0 | 0.00 | 0.00 | 0.00 | 86 | 1008.3 |
| 20260506145611 | 80 | 147 | 2.0 | 6.0 | 0.00 | 0.00 | 0.00 | 87 | 1008.5 |
| 20260506145108 | 80 | 163 | 3.0 | 6.0 | 0.00 | 0.00 | 0.00 | 87 | 1008.2 |
| 20260506144605 | 80 | 152 | 4.0 | 6.0 | 0.00 | 0.00 | 0.00 | 87 | 1007.9 |
| 20260506144102 | 80 | 143 | 5.0 | 7.0 | 0.00 | 0.00 | 0.00 | 88 | 1008.1 |
| 20260506143600 | 80 | 175 | 2.0 | 5.0 | 0.00 | 0.00 | 0.00 | 88 | 1007.9 |
| 20260506143058 | 80 | 160 | 3.0 | 4.0 | 0.00 | 0.00 | 0.00 | 89 | 1007.8 |
| 20260506142555 | 79 | 181 | 0.0 | 4.0 | 0.00 | 0.00 | 0.00 | 90 | 1008.0 |
| 20260506142054 | 79 | 105 | 1.0 | 5.0 | 0.00 | 0.00 | 0.00 | 90 | 1007.8 |
| 20260506141551 | 79 | 155 | 1.0 | 5.0 | 0.00 | 0.00 | 0.00 | 91 | 1007.9 |
| 20260506141049 | 78 | 180 | 1.0 | 4.0 | 0.00 | 0.00 | 0.00 | 92 | 1007.8 |
| 20260506140546 | 78 | 141 | 3.0 | 6.0 | 0.00 | 0.00 | 0.00 | 91 | 1007.9 |
| 20260506140044 | 78 | 174 | 2.0 | 3.0 | 0.00 | 0.00 | 0.00 | 92 | 1008.1 |
| 20260506135540 | 78 | 167 | 2.0 | 4.0 | 0.00 | 0.00 | 0.00 | 92 | 1008.3 |
| 20260506135036 | 78 | 122 | 1.0 | 3.0 | 0.00 | 0.00 | 0.00 | 93 | 1007.9 |
| 20260506134533 | 78 | 89 | 0.0 | 2.0 | 0.00 | 0.00 | 0.00 | 93 | 1008.2 |
| 20260506134029 | 78 | 140 | 1.0 | 3.0 | 0.00 | 0.00 | 0.00 | 93 | 1008.0 |
| 20260506133526 | 77 | 189 | 0.0 | 4.0 | 0.00 | 0.00 | 0.00 | 94 | 1008.1 |
| 20260506133023 | 77 | 181 | 2.0 | 3.0 | 0.00 | 0.00 | 0.00 | 94 | 1008.2 |
| 20260506132520 | 77 | 88 | 0.0 | 4.0 | 0.00 | 0.00 | 0.00 | 95 | 1008.2 |
| 20260506132018 | 77 | 166 | 2.0 | 3.0 | 0.00 | 0.00 | 0.00 | 95 | 1008.2 |
| 20260506131515 | 77 | 130 | 2.0 | 5.0 | 0.00 | 0.00 | 0.00 | 96 | 1008.5 |
| 20260506131011 | 77 | 127 | 0.0 | 2.0 | 0.00 | 0.00 | 0.00 | 96 | 1008.3 |
| 20260506130508 | 76 | 166 | 1.0 | 5.0 | 0.00 | 0.00 | 0.00 | 96 | 1008.2 |
| 20260506130006 | 76 | 159 | 2.0 | 4.0 | 0.00 | 0.00 | 0.00 | 97 | 1008.3 |
| 20260506125504 | 76 | 320 | 0.0 | 4.0 | 0.00 | 0.00 | 0.00 | 97 | 1008.1 |
| 20260506125001 | 76 | 198 | 0.0 | 1.0 | 0.00 | 0.00 | 0.00 | 98 | 1008.3 |
| 20260506124459 | 76 | 152 | 2.0 | 4.0 | 0.00 | 0.00 | 0.00 | 98 | 1008.2 |
| 20260506123957 | 75 | 264 | 0.0 | 3.0 | 0.00 | 0.00 | 0.00 | 98 | 1008.1 |
| 20260506123454 | 75 | 200 | 2.0 | 3.0 | 0.00 | 0.00 | 0.00 | 98 | 1008.1 |
| 20260506122952 | 75 | 205 | 0.0 | 2.0 | 0.00 | 0.00 | 0.00 | 98 | 1008.1 |
| 20260506122448 | 75 | 173 | 0.0 | 2.0 | 0.00 | 0.00 | 0.00 | 98 | 1008.0 |
| 20260506121947 | 75 | 202 | 2.0 | 3.0 | 0.00 | 0.00 | 0.00 | 98 | 1007.9 |
| 20260506121443 | 75 | 191 | 0.0 | 3.0 | 0.00 | 0.00 | 0.00 | 98 | 1007.9 |
| 20260506120940 | 75 | 213 | 0.0 | 2.0 | 0.00 | 0.00 | 0.00 | 98 | 1007.9 |
| 20260506120438 | 75 | 200 | 2.0 | 2.0 | 0.00 | 0.00 | 0.00 | 98 | 1007.9 |
| 20260506115935 | 75 | 214 | 1.0 | 2.0 | 0.00 | 0.00 | 0.00 | 98 | 1007.7 |
| 20260506115433 | 74 | 192 | 2.0 | 2.0 | 0.00 | 0.00 | 0.00 | 98 | 1007.4 |
| 20260506114931 | 74 | 297 | 0.0 | 2.0 | 0.00 | 0.00 | 0.00 | 98 | 1007.5 |
| 20260506114428 | 74 | 212 | 2.0 | 2.0 | 0.00 | 0.00 | 0.00 | 98 | 1007.5 |
| 20260506113927 | 74 | 322 | 0.0 | 1.0 | 0.00 | 0.00 | 0.00 | 98 | 1007.7 |
| 20260506113425 | 74 | 293 | 0.0 | 2.0 | 0.00 | 0.00 | 0.00 | 98 | 1007.6 |
| 20260506112921 | 74 | 277 | 1.0 | 1.0 | 0.00 | 0.00 | 0.00 | 98 | 1007.4 |
| 20260506112419 | 74 | 228 | 2.0 | 2.0 | 0.00 | 0.00 | 0.00 | 98 | 1007.4 |
| 20260506111915 | 74 | 245 | 1.0 | 2.0 | 0.00 | 0.00 | 0.00 | 98 | 1007.3 |
| 20260506111413 | 74 | 324 | 0.0 | 3.0 | 0.00 | 0.00 | 0.00 | 98 | 1007.2 |
| 20260506110910 | 74 | 205 | 0.0 | 4.0 | 0.00 | 0.00 | 0.00 | 98 | 1007.2 |
| 20260506110408 | 75 | 277 | 0.0 | 2.0 | 0.00 | 0.00 | 0.00 | 97 | 1007.0 |
| 20260506105904 | 75 | 221 | 2.0 | 2.0 | 0.00 | 0.00 | 0.00 | 97 | 1006.9 |
| 20260506105400 | 75 | 284 | 2.0 | 4.0 | 0.00 | 0.00 | 0.00 | 97 | 1007.1 |
| 20260506104858 | 75 | 53 | 0.0 | 3.0 | 0.00 | 0.00 | 0.00 | 97 | 1006.8 |
| 20260506104356 | 75 | 184 | 3.0 | 5.0 | 0.00 | 0.00 | 0.00 | 97 | 1006.8 |
| 20260506103853 | 75 | 96 | 0.0 | 4.0 | 0.00 | 0.00 | 0.00 | 96 | 1006.9 |
| 20260506103351 | 75 | 245 | 0.0 | 3.0 | 0.00 | 0.00 | 0.00 | 96 | 1006.9 |
| 20260506102848 | 75 | 134 | 0.0 | 4.0 | 0.00 | 0.00 | 0.00 | 96 | 1006.9 |
| 20260506102346 | 75 | 218 | 1.0 | 2.0 | 0.00 | 0.00 | 0.00 | 96 | 1007.0 |
| 20260506101843 | 75 | 172 | 3.0 | 4.0 | 0.00 | 0.00 | 0.00 | 96 | 1006.9 |
| 20260506101338 | 75 | 220 | 1.0 | 3.0 | 0.00 | 0.00 | 0.00 | 96 | 1006.9 |
| 20260506100836 | 75 | 253 | 1.0 | 2.0 | 0.00 | 0.00 | 0.00 | 95 | 1007.0 |
| 20260506100335 | 75 | 214 | 1.0 | 3.0 | 0.00 | 0.00 | 0.00 | 95 | 1006.8 |
| 20260506095833 | 75 | 236 | 3.0 | 6.0 | 0.00 | 0.00 | 0.00 | 95 | 1006.8 |
| 20260506095330 | 76 | 180 | 4.0 | 5.0 | 0.00 | 0.00 | 0.00 | 95 | 1006.7 |
| 20260506094826 | 75 | 214 | 3.0 | 5.0 | 0.00 | 0.00 | 0.00 | 95 | 1006.5 |
| 20260506094325 | 75 | 175 | 3.0 | 4.0 | 0.00 | 0.00 | 0.00 | 95 | 1006.8 |
| 20260506093823 | 76 | 149 | 3.0 | 6.0 | 0.00 | 0.00 | 0.00 | 94 | 1006.5 |
| 20260506093320 | 76 | 153 | 0.0 | 6.0 | 0.00 | 0.00 | 0.00 | 94 | 1006.6 |
| 20260506092818 | 76 | 218 | 3.0 | 5.0 | 0.00 | 0.00 | 0.00 | 94 | 1006.5 |
| 20260506092315 | 76 | 166 | 2.0 | 4.0 | 0.00 | 0.00 | 0.00 | 94 | 1006.5 |
| 20260506091812 | 76 | 144 | 2.0 | 4.0 | 0.00 | 0.00 | 0.00 | 94 | 1006.4 |
| 20260506091310 | 76 | 179 | 3.0 | 4.0 | 0.00 | 0.00 | 0.00 | 94 | 1006.6 |
| 20260506090807 | 76 | 162 | 2.0 | 5.0 | 0.00 | 0.00 | 0.00 | 94 | 1006.5 |
| 20260506090304 | 76 | 160 | 5.0 | 9.0 | 0.00 | 0.00 | 0.00 | 93 | 1006.6 |
| 20260506085801 | 76 | 162 | 3.0 | 8.0 | 0.00 | 0.00 | 0.00 | 93 | 1006.6 |
| 20260506085257 | 77 | 205 | 3.0 | 4.0 | 0.00 | 0.00 | 0.00 | 93 | 1006.7 |
| 20260506084754 | 76 | 119 | 2.0 | 6.0 | 0.00 | 0.00 | 0.00 | 93 | 1006.8 |
| 20260506084250 | 76 | 180 | 2.0 | 4.0 | 0.00 | 0.00 | 0.00 | 93 | 1006.9 |
| 20260506083747 | 76 | 166 | 1.0 | 4.0 | 0.00 | 0.00 | 0.00 | 93 | 1006.7 |
| 20260506083245 | 77 | 167 | 3.0 | 5.0 | 0.00 | 0.00 | 0.00 | 93 | 1006.8 |
| 20260506082742 | 77 | 140 | 2.0 | 6.0 | 0.00 | 0.00 | 0.00 | 93 | 1006.9 |
| 20260506082237 | 76 | 138 | 3.0 | 5.0 | 0.00 | 0.00 | 0.00 | 93 | 1007.0 |
| 20260506081736 | 76 | 177 | 2.0 | 4.0 | 0.00 | 0.00 | 0.00 | 93 | 1006.8 |
| 20260506081233 | 77 | 211 | 2.0 | 3.0 | 0.00 | 0.00 | 0.00 | 93 | 1006.9 |
| 20260506080731 | 77 | 201 | 2.0 | 4.0 | 0.00 | 0.00 | 0.00 | 93 | 1007.1 |
| 20260506080227 | 77 | 183 | 4.0 | 5.0 | 0.00 | 0.00 | 0.00 | 93 | 1007.0 |
| 20260506073211 | 77 | 150 | 0.0 | 2.0 | 0.00 | 0.00 | 0.00 | 93 | 1007.3 |
| 20260506072708 | 77 | 166 | 2.0 | 3.0 | 0.00 | 0.00 | 0.00 | 93 | 1007.3 |
| 20260506072205 | 77 | 272 | 0.0 | 2.0 | 0.00 | 0.00 | 0.00 | 92 | 1007.6 |
| 20260506071702 | 77 | 190 | 2.0 | 5.0 | 0.00 | 0.00 | 0.00 | 92 | 1007.5 |
| 20260506071200 | 77 | 148 | 3.0 | 6.0 | 0.00 | 0.00 | 0.00 | 92 | 1007.7 |
| 20260506070657 | 77 | 184 | 2.0 | 4.0 | 0.00 | 0.00 | 0.00 | 92 | 1007.7 |
| 20260506070154 | 77 | 202 | 3.0 | 5.0 | 0.00 | 0.00 | 0.00 | 92 | 1007.6 |
| 20260506062131 | 77 | 193 | 4.0 | 6.0 | 0.00 | 0.00 | 0.00 | 93 | 1007.8 |
| 20260506061627 | 77 | 203 | 1.0 | 9.0 | 0.00 | 0.00 | 0.00 | 93 | 1007.8 |
| 20260506061125 | 77 | 175 | 4.0 | 8.0 | 0.00 | 0.00 | 0.00 | 93 | 1007.6 |
| 20260506060623 | 77 | 200 | 0.0 | 7.0 | 0.00 | 0.00 | 0.00 | 93 | 1007.7 |
| 20260506060120 | 77 | 258 | 1.0 | 6.0 | 0.00 | 0.00 | 0.00 | 93 | 1007.7 |
| 20260506051052 | 77 | 173 | 4.0 | 4.0 | 0.00 | 0.00 | 0.00 | 92 | 1007.8 |
| 20260506050549 | 77 | 162 | 4.0 | 7.0 | 0.00 | 0.00 | 0.00 | 92 | 1007.8 |
| 20260506045040 | 77 | 163 | 2.0 | 5.0 | 0.00 | 0.00 | 0.00 | 91 | 1007.7 |
| 20260506044538 | 77 | 164 | 5.0 | 8.0 | 0.00 | 0.00 | 0.00 | 91 | 1007.6 |
| 20260506044035 | 77 | 163 | 3.0 | 6.0 | 0.00 | 0.00 | 0.00 | 91 | 1007.6 |
| 20260506043531 | 77 | 177 | 4.0 | 5.0 | 0.00 | 0.00 | 0.00 | 91 | 1007.8 |
| 20260506043030 | 77 | 169 | 2.0 | 4.0 | 0.00 | 0.00 | 0.00 | 90 | 1007.8 |
| 20260506042529 | 78 | 207 | 2.0 | 6.0 | 0.00 | 0.00 | 0.00 | 90 | 1007.7 |
| 20260506042027 | 78 | 194 | 2.0 | 6.0 | 0.00 | 0.00 | 0.00 | 89 | 1007.7 |
| 20260506041525 | 78 | 181 | 1.0 | 4.0 | 0.00 | 0.00 | 0.00 | 89 | 1007.7 |
| 20260506041021 | 78 | 146 | 1.0 | 6.0 | 0.00 | 0.00 | 0.00 | 88 | 1007.6 |
| 20260506040519 | 78 | 153 | 4.0 | 5.0 | 0.00 | 0.00 | 0.00 | 88 | 1007.8 |
| 20260506040015 | 78 | 188 | 2.0 | 4.0 | 0.00 | 0.00 | 0.00 | 88 | 1007.5 |
| 20260506035512 | 78 | 156 | 4.0 | 6.0 | 0.00 | 0.00 | 0.00 | 88 | 1007.6 |
| 20260506035008 | 78 | 196 | 3.0 | 6.0 | 0.00 | 0.00 | 0.00 | 88 | 1007.4 |
| 20260506034506 | 78 | 198 | 5.0 | 6.0 | 0.00 | 0.00 | 0.00 | 87 | 1007.4 |
| 20260506034003 | 78 | 190 | 5.0 | 6.0 | 0.00 | 0.00 | 0.00 | 87 | 1007.5 |
| 20260506033500 | 78 | 162 | 4.0 | 6.0 | 0.00 | 0.00 | 0.00 | 87 | 1007.5 |
| 20260506032957 | 78 | 176 | 3.0 | 4.0 | 0.00 | 0.00 | 0.00 | 87 | 1007.4 |
| 20260506032455 | 78 | 225 | 2.0 | 6.0 | 0.00 | 0.00 | 0.00 | 87 | 1007.3 |
| 20260506031950 | 78 | 190 | 4.0 | 6.0 | 0.00 | 0.00 | 0.00 | 87 | 1007.0 |
| 20260506031448 | 78 | 166 | 2.0 | 7.0 | 0.00 | 0.00 | 0.00 | 87 | 1007.0 |
| 20260506030946 | 78 | 161 | 3.0 | 5.0 | 0.00 | 0.00 | 0.00 | 87 | 1006.7 |
| 20260506030444 | 78 | 180 | 3.0 | 9.0 | 0.00 | 0.00 | 0.00 | 87 | 1007.0 |
| 20260506025940 | 78 | 152 | 2.0 | 5.0 | 0.00 | 0.00 | 0.00 | 86 | 1006.8 |
| 20260506025437 | 78 | 35 | 1.0 | 8.0 | 0.00 | 0.00 | 0.00 | 86 | 1006.9 |
| 20260506024934 | 78 | 157 | 4.0 | 11.0 | 0.00 | 0.00 | 0.00 | 86 | 1006.9 |
| 20260506024431 | 78 | 158 | 4.0 | 7.0 | 0.00 | 0.00 | 0.00 | 86 | 1006.9 |
| 20260506023926 | 78 | 96 | 3.0 | 6.0 | 0.00 | 0.00 | 0.00 | 86 | 1006.7 |
| 20260506023424 | 79 | 118 | 5.0 | 10.0 | 0.00 | 0.00 | 0.00 | 86 | 1006.6 |
| 20260506022920 | 79 | 179 | 3.0 | 8.0 | 0.00 | 0.00 | 0.00 | 86 | 1006.3 |
| 20260506022418 | 79 | 189 | 5.0 | 6.0 | 0.00 | 0.00 | 0.00 | 85 | 1006.2 |
| 20260506021916 | 79 | 177 | 4.0 | 8.0 | 0.00 | 0.00 | 0.00 | 85 | 1006.1 |
| 20260506021413 | 79 | 186 | 1.0 | 6.0 | 0.00 | 0.00 | 0.00 | 84 | 1006.5 |
| 20260506020909 | 79 | 171 | 0.0 | 2.0 | 0.00 | 0.00 | 0.00 | 84 | 1006.2 |
| 20260506020408 | 79 | 140 | 3.0 | 8.0 | 0.00 | 0.00 | 0.00 | 84 | 1006.3 |
| 20260506015904 | 79 | 136 | 3.0 | 5.0 | 0.00 | 0.00 | 0.00 | 84 | 1006.0 |
| 20260506015402 | 79 | 184 | 3.0 | 5.0 | 0.00 | 0.00 | 0.00 | 83 | 1006.3 |
| 20260506014859 | 79 | 165 | 4.0 | 7.0 | 0.00 | 0.00 | 0.00 | 83 | 1005.9 |
| 20260506014355 | 79 | 169 | 2.0 | 8.0 | 0.00 | 0.00 | 0.00 | 83 | 1006.2 |
| 20260506013852 | 79 | 148 | 3.0 | 6.0 | 0.00 | 0.00 | 0.00 | 83 | 1005.9 |
| 20260506013350 | 79 | 150 | 2.0 | 5.0 | 0.00 | 0.00 | 0.00 | 82 | 1005.9 |
| 20260506012846 | 80 | 174 | 3.0 | 5.0 | 0.00 | 0.00 | 0.00 | 82 | 1005.8 |
| 20260506012343 | 80 | 180 | 3.0 | 4.0 | 0.00 | 0.00 | 0.00 | 82 | 1005.7 |
| 20260506011840 | 80 | 234 | 0.0 | 4.0 | 0.00 | 0.00 | 0.00 | 82 | 1005.8 |
| 20260506011337 | 80 | 169 | 3.0 | 5.0 | 0.00 | 0.00 | 0.00 | 81 | 1005.5 |
| 20260506010834 | 80 | 155 | 2.0 | 6.0 | 0.00 | 0.00 | 0.00 | 81 | 1005.6 |
| 20260506010332 | 80 | 166 | 2.0 | 7.0 | 0.00 | 0.00 | 0.00 | 81 | 1005.4 |
| 20260506005829 | 80 | 158 | 2.0 | 5.0 | 0.00 | 0.00 | 0.00 | 81 | 1005.3 |
| 20260506005326 | 80 | 136 | 1.0 | 3.0 | 0.00 | 0.00 | 0.00 | 81 | 1005.1 |
| 20260506004821 | 80 | 173 | 4.0 | 7.0 | 0.00 | 0.00 | 0.00 | 80 | 1005.3 |
| 20260506004319 | 80 | 163 | 4.0 | 4.0 | 0.00 | 0.00 | 0.00 | 80 | 1005.1 |
| 20260506003815 | 80 | 161 | 3.0 | 5.0 | 0.00 | 0.00 | 0.00 | 79 | 1005.2 |
| 20260506003312 | 80 | 157 | 7.0 | 9.0 | 0.00 | 0.00 | 0.00 | 79 | 1005.4 |
| 20260506002808 | 81 | 172 | 4.0 | 5.0 | 0.00 | 0.00 | 0.00 | 79 | 1005.2 |
| 20260506002306 | 81 | 146 | 4.0 | 6.0 | 0.00 | 0.00 | 0.00 | 78 | 1005.3 |
| 20260506001800 | 81 | 162 | 4.0 | 14.0 | 0.00 | 0.00 | 0.00 | 79 | 1004.9 |
| 20260506001258 | 81 | 151 | 4.0 | 8.0 | 0.00 | 0.00 | 0.00 | 79 | 1005.1 |
| 20260506000754 | 81 | 150 | 5.0 | 8.0 | 0.00 | 0.00 | 0.00 | 79 | 1005.1 |
| 20260506000254 | 81 | 166 | 3.0 | 9.0 | 0.00 | 0.00 | 0.00 | 78 | 1005.1 |
| 20260505235749 | 81 | 102 | 3.0 | 9.0 | 0.00 | 0.00 | 0.00 | 78 | 1005.1 |
| 20260505235246 | 82 | 192 | 2.0 | 5.0 | 0.00 | 0.00 | 0.00 | 78 | 1005.1 |
| 20260505234743 | 81 | 150 | 6.0 | 12.0 | 0.00 | 0.00 | 0.00 | 77 | 1005.0 |
| 20260505234241 | 82 | 170 | 5.0 | 12.0 | 0.00 | 0.00 | 0.00 | 77 | 1005.0 |
| 20260505233737 | 82 | 159 | 9.0 | 12.0 | 0.00 | 0.00 | 0.00 | 76 | 1005.0 |
| 20260505233236 | 82 | 162 | 3.0 | 8.0 | 0.00 | 0.00 | 0.00 | 77 | 1004.8 |
| 20260505232732 | 82 | 167 | 4.0 | 12.0 | 0.00 | 0.00 | 0.00 | 77 | 1005.0 |
| 20260505232230 | 82 | 142 | 6.0 | 10.0 | 0.00 | 0.00 | 0.00 | 77 | 1004.8 |
| 20260505231726 | 82 | 174 | 3.0 | 9.0 | 0.00 | 0.00 | 0.00 | 77 | 1005.0 |
| 20260505231225 | 82 | 149 | 4.0 | 9.0 | 0.00 | 0.00 | 0.00 | 78 | 1005.0 |
| 20260505230723 | 82 | 148 | 3.0 | 11.0 | 0.00 | 0.00 | 0.00 | 78 | 1005.0 |
| 20260505230219 | 82 | 75 | 2.0 | 9.0 | 0.00 | 0.00 | 0.00 | 77 | 1005.0 |
| 20260505225716 | 83 | 159 | 4.0 | 9.0 | 0.00 | 0.00 | 0.00 | 77 | 1005.1 |
| 20260505225213 | 82 | 145 | 5.0 | 10.0 | 0.00 | 0.00 | 0.00 | 77 | 1005.1 |
| 20260505224708 | 83 | 116 | 1.0 | 5.0 | 0.00 | 0.00 | 0.00 | 77 | 1005.2 |
| 20260505224206 | 83 | 75 | 2.0 | 6.0 | 0.00 | 0.00 | 0.00 | 77 | 1004.8 |
| 20260505223703 | 83 | 188 | 3.0 | 6.0 | 0.00 | 0.00 | 0.00 | 76 | 1005.1 |
| 20260505223159 | 83 | 216 | 2.0 | 7.0 | 0.00 | 0.00 | 0.00 | 77 | 1005.3 |
| 20260505222655 | 84 | 152 | 3.0 | 7.0 | 0.00 | 0.00 | 0.00 | 75 | 1004.9 |
| 20260505222152 | 83 | 208 | 1.0 | 10.0 | 0.00 | 0.00 | 0.00 | 75 | 1005.3 |
| 20260505221649 | 84 | 176 | 5.0 | 11.0 | 0.00 | 0.00 | 0.00 | 74 | 1005.0 |
| 20260505221145 | 84 | 156 | 4.0 | 9.0 | 0.00 | 0.00 | 0.00 | 74 | 1005.0 |
| 20260505220643 | 84 | 141 | 2.0 | 7.0 | 0.00 | 0.00 | 0.00 | 74 | 1005.1 |
| 20260505220140 | 84 | 159 | 4.0 | 10.0 | 0.00 | 0.00 | 0.00 | 74 | 1005.4 |
| 20260505215638 | 84 | 304 | 3.0 | 8.0 | 0.00 | 0.00 | 0.00 | 75 | 1005.4 |
| 20260505215136 | 84 | 207 | 4.0 | 5.0 | 0.00 | 0.00 | 0.00 | 75 | 1005.3 |
| 20260505214634 | 84 | 178 | 4.0 | 18.0 | 0.00 | 0.00 | 0.00 | 75 | 1005.6 |
| 20260505214130 | 85 | 82 | 0.0 | 4.0 | 0.00 | 0.00 | 0.00 | 75 | 1005.6 |
| 20260505213628 | 84 | 158 | 6.0 | 7.0 | 0.00 | 0.00 | 0.00 | 74 | 1005.5 |
| 20260505213124 | 84 | 202 | 4.0 | 8.0 | 0.00 | 0.00 | 0.00 | 74 | 1005.7 |
| 20260505212620 | 84 | 178 | 4.0 | 10.0 | 0.00 | 0.00 | 0.00 | 75 | 1005.6 |
| 20260505212119 | 85 | 126 | 1.0 | 8.0 | 0.00 | 0.00 | 0.00 | 71 | 1005.7 |
| 20260505211615 | 86 | 149 | 4.0 | 9.0 | 0.00 | 0.00 | 0.00 | 72 | 1005.7 |
| 20260505211112 | 85 | 149 | 3.0 | 9.0 | 0.00 | 0.00 | 0.00 | 72 | 1005.7 |
| 20260505210609 | 85 | 204 | 4.0 | 9.0 | 0.00 | 0.00 | 0.00 | 72 | 1005.9 |
| 20260505210106 | 85 | 210 | 3.0 | 10.0 | 0.00 | 0.00 | 0.00 | 72 | 1005.9 |
| 20260505205603 | 85 | 167 | 8.0 | 15.0 | 0.00 | 0.00 | 0.00 | 71 | 1005.9 |
| 20260505205101 | 84 | 155 | 4.0 | 10.0 | 0.00 | 0.00 | 0.00 | 73 | 1006.0 |
| 20260505204558 | 85 | 142 | 4.0 | 11.0 | 0.00 | 0.00 | 0.00 | 72 | 1006.1 |
| 20260505204055 | 85 | 183 | 8.0 | 13.0 | 0.00 | 0.00 | 0.00 | 72 | 1006.2 |
| 20260505203551 | 85 | 175 | 8.0 | 11.0 | 0.00 | 0.00 | 0.00 | 71 | 1006.3 |
| 20260505203049 | 85 | 212 | 6.0 | 9.0 | 0.00 | 0.00 | 0.00 | 72 | 1006.3 |
| 20260505202545 | 85 | 146 | 2.0 | 10.0 | 0.00 | 0.00 | 0.00 | 72 | 1006.3 |
| 20260505202041 | 85 | 136 | 4.0 | 12.0 | 0.00 | 0.00 | 0.00 | 72 | 1006.4 |
| 20260505201538 | 86 | 205 | 4.0 | 11.0 | 0.00 | 0.00 | 0.00 | 71 | 1006.4 |
| 20260505201036 | 85 | 217 | 7.0 | 13.0 | 0.00 | 0.00 | 0.00 | 72 | 1006.7 |
| 20260505200533 | 84 | 177 | 4.0 | 8.0 | 0.00 | 0.00 | 0.00 | 73 | 1006.8 |
| 20260505200030 | 84 | 130 | 5.0 | 10.0 | 0.00 | 0.00 | 0.00 | 73 | 1006.9 |
| 20260505195526 | 84 | 158 | 4.0 | 7.0 | 0.00 | 0.00 | 0.00 | 74 | 1006.9 |
| 20260505195024 | 84 | 177 | 4.0 | 11.0 | 0.00 | 0.00 | 0.00 | 74 | 1006.7 |
| 20260505194515 | 84 | 149 | 6.0 | 11.0 | 0.00 | 0.00 | 0.00 | 73 | 1007.0 |
| 20260505194010 | 84 | 140 | 2.0 | 12.0 | 0.00 | 0.00 | 0.00 | 75 | 1007.0 |
| 20260505193508 | 83 | 209 | 6.0 | 11.0 | 0.00 | 0.00 | 0.00 | 75 | 1007.2 |
| 20260505193005 | 83 | 224 | 6.0 | 12.0 | 0.00 | 0.00 | 0.00 | 75 | 1007.0 |
| 20260505192504 | 83 | 213 | 3.0 | 10.0 | 0.00 | 0.00 | 0.00 | 74 | 1007.1 |
| 20260505192001 | 84 | 203 | 8.0 | 9.0 | 0.00 | 0.00 | 0.00 | 74 | 1007.1 |
| 20260505191459 | 84 | 162 | 6.0 | 10.0 | 0.00 | 0.00 | 0.00 | 73 | 1007.2 |
| 20260505190956 | 85 | 204 | 5.0 | 15.0 | 0.00 | 0.00 | 0.00 | 72 | 1007.1 |
| 20260505190451 | 85 | 195 | 4.0 | 9.0 | 0.00 | 0.00 | 0.00 | 73 | 1007.0 |
| 20260505185947 | 84 | 198 | 4.0 | 7.0 | 0.00 | 0.00 | 0.00 | 74 | 1007.2 |
| 20260505185444 | 84 | 159 | 8.0 | 12.0 | 0.00 | 0.00 | 0.00 | 74 | 1007.1 |
| 20260505184940 | 84 | 187 | 3.0 | 9.0 | 0.00 | 0.00 | 0.00 | 74 | 1007.4 |
| 20260505184437 | 84 | 220 | 2.0 | 9.0 | 0.00 | 0.00 | 0.00 | 75 | 1007.3 |
| 20260505183934 | 83 | 214 | 6.0 | 14.0 | 0.00 | 0.00 | 0.00 | 76 | 1007.4 |
| 20260505183431 | 82 | 172 | 4.0 | 6.0 | 0.00 | 0.00 | 0.00 | 77 | 1007.4 |
| 20260505182928 | 82 | 204 | 2.0 | 6.0 | 0.00 | 0.00 | 0.00 | 78 | 1007.4 |
| 20260505182425 | 81 | 166 | 3.0 | 7.0 | 0.00 | 0.00 | 0.00 | 79 | 1007.4 |
| 20260505181921 | 82 | 197 | 6.0 | 6.0 | 0.00 | 0.00 | 0.00 | 78 | 1007.3 |
| 20260505181419 | 82 | 216 | 2.0 | 7.0 | 0.00 | 0.00 | 0.00 | 78 | 1007.7 |
| 20260505180915 | 82 | 155 | 5.0 | 9.0 | 0.00 | 0.00 | 0.00 | 77 | 1007.4 |
| 20260505180411 | 82 | 198 | 2.0 | 8.0 | 0.00 | 0.00 | 0.00 | 78 | 1007.6 |
| 20260505175908 | 81 | 151 | 2.0 | 9.0 | 0.00 | 0.00 | 0.00 | 80 | 1007.5 |
| 20260505175405 | 80 | 180 | 3.0 | 10.0 | 0.00 | 0.00 | 0.00 | 80 | 1007.5 |
| 20260505174901 | 81 | 215 | 2.0 | 6.0 | 0.00 | 0.00 | 0.00 | 80 | 1007.7 |
| 20260505174359 | 81 | 239 | 2.0 | 7.0 | 0.00 | 0.00 | 0.00 | 79 | 1007.9 |
| 20260505173854 | 81 | 240 | 5.0 | 6.0 | 0.00 | 0.00 | 0.00 | 79 | 1007.9 |
| 20260505173351 | 81 | 193 | 2.0 | 8.0 | 0.00 | 0.00 | 0.00 | 79 | 1007.8 |
| 20260505172848 | 81 | 289 | 2.0 | 8.0 | 0.00 | 0.00 | 0.00 | 79 | 1007.9 |
| 20260505172346 | 81 | 236 | 4.0 | 7.0 | 0.00 | 0.00 | 0.00 | 80 | 1008.1 |
| 20260505171845 | 80 | 202 | 4.0 | 7.0 | 0.00 | 0.00 | 0.00 | 81 | 1007.9 |
| 20260505171342 | 80 | 162 | 3.0 | 9.0 | 0.00 | 0.00 | 0.00 | 82 | 1008.0 |
| 20260505170839 | 80 | 184 | 4.0 | 7.0 | 0.00 | 0.00 | 0.00 | 81 | 1008.2 |
| 20260505170336 | 80 | 235 | 1.0 | 9.0 | 0.00 | 0.00 | 0.00 | 81 | 1008.1 |
| 20260505165831 | 80 | 185 | 4.0 | 12.0 | 0.00 | 0.00 | 0.00 | 82 | 1007.8 |
| 20260505165327 | 80 | 261 | 3.0 | 6.0 | 0.00 | 0.00 | 0.00 | 83 | 1008.1 |
| 20260505164823 | 79 | 158 | 4.0 | 5.0 | 0.00 | 0.00 | 0.00 | 85 | 1008.1 |
| 20260505164320 | 78 | 256 | 4.0 | 5.0 | 0.00 | 0.00 | 0.00 | 86 | 1008.2 |
| 20260505163818 | 78 | 164 | 2.0 | 6.0 | 0.00 | 0.00 | 0.00 | 86 | 1008.0 |
| 20260505163316 | 79 | 198 | 7.0 | 11.0 | 0.00 | 0.00 | 0.00 | 84 | 1008.0 |
| 20260505162814 | 79 | 221 | 4.0 | 11.0 | 0.00 | 0.00 | 0.00 | 83 | 1008.0 |
| 20260505162310 | 79 | 189 | 2.0 | 9.0 | 0.00 | 0.00 | 0.00 | 83 | 1008.0 |
| 20260505161808 | 79 | 198 | 5.0 | 8.0 | 0.00 | 0.00 | 0.00 | 82 | 1008.0 |
| 20260505161305 | 79 | 214 | 3.0 | 10.0 | 0.00 | 0.00 | 0.00 | 83 | 1008.1 |
| 20260505160802 | 79 | 192 | 2.0 | 9.0 | 0.00 | 0.00 | 0.00 | 83 | 1008.0 |
| 20260505160300 | 79 | 173 | 5.0 | 6.0 | 0.00 | 0.00 | 0.00 | 83 | 1008.0 |
| 20260505153238 | 78 | 137 | 2.0 | 5.0 | 0.00 | 0.00 | 0.00 | 85 | 1007.9 |
| 20260505152735 | 77 | 177 | 4.0 | 6.0 | 0.00 | 0.00 | 0.00 | 87 | 1007.8 |
| 20260505152231 | 77 | 154 | 4.0 | 8.0 | 0.00 | 0.00 | 0.00 | 87 | 1007.7 |
| 20260505151726 | 77 | 190 | 5.0 | 9.0 | 0.00 | 0.00 | 0.00 | 88 | 1007.7 |
| 20260505151224 | 77 | 200 | 4.0 | 5.0 | 0.00 | 0.00 | 0.00 | 88 | 1007.8 |